Time,TemperatureF,DewpointF,PressureIn,WindDirection,WindDirectionDegrees,WindSpeedMPH,WindSpeedGustMPH,Humidity,HourlyPrecipIn,Conditions,Clouds,dailyrainin,SoftwareType,DateUTC
2013-06-15 00:02:00,51.0,-99.9,-100.00,North,-999,-999.0,-999.0,-999,-99.99,,,-99.99,,2013-06-15 07:02:00,
2013-06-15 00:11:00,50.0,33.0,-100.00,North,-999,-999.0,-999.0,51,-99.99,,,-99.99,,2013-06-15 07:11:00,
2013-06-15 00:33:00,50.0,33.0,-100.00,North,-999,-999.0,-999.0,51,-99.99,,,-99.99,,2013-06-15 07:33:00,
2013-06-15 00:43:00,47.0,-99.9,-100.00,NNW,330,0.0,-999.0,58,-99.99,,,-99.99,,2013-06-15 07:43:00,
2013-06-15 01:03:00,45.0,-99.9,-100.00,North,-999,-999.0,-999.0,-999,-99.99,,,-99.99,,2013-06-15 08:03:00,
2013-06-15 01:12:00,45.0,-99.9,-100.00,North,-999,-999.0,-999.0,-999,-99.99,,,-99.99,,2013-06-15 08:12:00,
2013-06-15 01:22:00,46.0,32.0,-100.00,North,-999,-999.0,-999.0,57,-99.99,,,-99.99,,2013-06-15 08:22:00,
2013-06-15 01:33:00,46.0,32.0,-100.00,North,-999,-999.0,-999.0,57,-99.99,,,-99.99,,2013-06-15 08:33:00,
2013-06-15 01:42:00,45.0,32.0,-100.00,North,-999,-999.0,-999.0,59,-99.99,,,-99.99,,2013-06-15 08:42:00,
2013-06-15 02:02:00,43.0,-99.9,-100.00,North,-999,-999.0,-999.0,56,-99.99,,,-99.99,,2013-06-15 09:02:00,
2013-06-15 02:12:00,43.0,28.0,-100.00,North,-999,-999.0,-999.0,54,-99.99,,,-99.99,,2013-06-15 09:12:00,
2013-06-15 02:22:00,43.0,28.0,-100.00,North,-999,-999.0,-999.0,54,-99.99,,,-99.99,,2013-06-15 09:22:00,
2013-06-15 02:33:00,44.0,31.0,-100.00,North,-999,-999.0,-999.0,60,-99.99,,,-99.99,,2013-06-15 09:33:00,
2013-06-15 02:52:00,42.0,29.0,-100.00,North,-999,-999.0,-999.0,58,-99.99,,,-99.99,,2013-06-15 09:52:00,
2013-06-15 03:02:00,41.0,27.0,-100.00,North,-999,-999.0,-999.0,56,-99.99,,,-99.99,,2013-06-15 10:02:00,
2013-06-15 03:11:00,41.0,27.0,-100.00,North,-999,-999.0,-999.0,56,-99.99,,,-99.99,,2013-06-15 10:11:00,
2013-06-15 03:23:00,41.0,27.0,-100.00,North,-999,-999.0,-999.0,56,-99.99,,,-99.99,,2013-06-15 10:23:00,
2013-06-15 03:33:00,42.0,26.0,-100.00,North,-999,-999.0,-999.0,53,-99.99,,,-99.99,,2013-06-15 10:33:00,
2013-06-15 03:43:00,41.0,26.0,-100.00,North,-999,-999.0,-999.0,55,-99.99,,,-99.99,,2013-06-15 10:43:00,
2013-06-15 03:53:00,41.0,26.0,-100.00,North,-999,-999.0,-999.0,55,-99.99,,,-99.99,,2013-06-15 10:53:00,
2013-06-15 04:01:00,40.0,30.0,-100.00,North,-999,-999.0,-999.0,67,-99.99,,,-99.99,,2013-06-15 11:01:00,
2013-06-15 04:11:00,40.0,30.0,-100.00,North,-999,-999.0,-999.0,67,-99.99,,,-99.99,,2013-06-15 11:11:00,
2013-06-15 04:33:00,40.0,30.0,-100.00,North,-999,-999.0,-999.0,67,-99.99,,,-99.99,,2013-06-15 11:33:00,
2013-06-15 05:01:00,40.0,27.0,-100.00,North,-999,-999.0,-999.0,58,-99.99,,,-99.99,,2013-06-15 12:01:00,
2013-06-15 05:11:00,40.0,27.0,-100.00,North,-999,-999.0,-999.0,58,-99.99,,,-99.99,,2013-06-15 12:11:00,
2013-06-15 05:44:00,39.0,-99.9,-100.00,North,-999,-999.0,-999.0,-999,-99.99,,,-99.99,,2013-06-15 12:44:00,
2013-06-15 05:53:00,39.0,-99.9,-100.00,North,-999,-999.0,-999.0,-999,-99.99,,,-99.99,,2013-06-15 12:53:00,
2013-06-15 06:02:00,38.0,27.0,-100.00,North,-999,-999.0,-999.0,64,-99.99,,,-99.99,,2013-06-15 13:02:00,
2013-06-15 06:12:00,39.0,-99.9,-100.00,North,-999,-999.0,-999.0,61,-99.99,,,-99.99,,2013-06-15 13:12:00,
2013-06-15 06:22:00,39.0,27.0,-100.00,North,-999,-999.0,-999.0,61,-99.99,,,-99.99,,2013-06-15 13:22:00,
2013-06-15 06:32:00,39.0,27.0,-100.00,North,-999,-999.0,-999.0,61,-99.99,,,-99.99,,2013-06-15 13:32:00,
2013-06-15 06:43:00,40.0,33.0,-100.00,North,-999,-999.0,-999.0,75,-99.99,,,-99.99,,2013-06-15 13:43:00,
2013-06-15 07:01:00,39.0,30.0,-100.00,North,-999,-999.0,-999.0,70,-99.99,,,-99.99,,2013-06-15 14:01:00,
2013-06-15 07:12:00,39.0,31.0,-100.00,North,-999,-999.0,-999.0,72,-99.99,,,-99.99,,2013-06-15 14:12:00,
2013-06-15 07:22:00,39.0,31.0,-100.00,North,-999,-999.0,-999.0,72,-99.99,,,-99.99,,2013-06-15 14:22:00,
2013-06-15 07:34:00,40.0,-99.9,-100.00,North,-999,-999.0,-999.0,-999,-99.99,,,-99.99,,2013-06-15 14:34:00,
2013-06-15 08:01:00,43.0,38.0,-100.00,North,-999,-999.0,-999.0,82,-99.99,,,-99.99,,2013-06-15 15:01:00,
2013-06-15 08:22:00,45.0,38.0,-100.00,North,-999,-999.0,-999.0,76,-99.99,,,-99.99,,2013-06-15 15:22:00,
2013-06-15 08:33:00,45.0,38.0,-100.00,North,-999,-999.0,-999.0,76,-99.99,,,-99.99,,2013-06-15 15:33:00,
2013-06-15 08:42:00,45.0,38.0,-100.00,North,-999,-999.0,-999.0,76,-99.99,,,-99.99,,2013-06-15 15:42:00,
2013-06-15 09:11:00,53.0,38.0,-100.00,North,-999,-999.0,-999.0,56,-99.99,,,-99.99,,2013-06-15 16:11:00,
2013-06-15 09:22:00,53.0,38.0,-100.00,North,-999,-999.0,-999.0,56,-99.99,,,-99.99,,2013-06-15 16:22:00,
2013-06-15 09:33:00,53.0,38.0,-100.00,North,-999,-999.0,-999.0,56,-99.99,,,-99.99,,2013-06-15 16:33:00,
2013-06-15 09:43:00,-999.0,-99.9,-100.00,North,350,0.0,-999.0,-999,-99.99,,,-99.99,,2013-06-15 16:43:00,
2013-06-15 09:54:00,55.0,-99.9,-100.00,North,350,0.0,-999.0,73,-99.99,,,-99.99,,2013-06-15 16:54:00,
2013-06-15 10:11:00,56.0,47.0,-100.00,North,-999,-999.0,-999.0,72,-99.99,,,-99.99,,2013-06-15 17:11:00,
2013-06-15 10:32:00,57.0,-99.9,-100.00,NNW,330,1.0,-999.0,76,-99.99,,,-99.99,,2013-06-15 17:32:00,
2013-06-15 10:43:00,57.0,-99.9,-100.00,NNW,330,1.0,-999.0,76,-99.99,,,-99.99,,2013-06-15 17:43:00,
2013-06-15 10:52:00,-999.0,-99.9,-100.00,NNW,330,1.0,-999.0,-999,-99.99,,,-99.99,,2013-06-15 17:52:00,
2013-06-15 11:02:00,61.0,-99.9,-100.00,NNW,330,1.0,-999.0,74,-99.99,,,-99.99,,2013-06-15 18:02:00,
2013-06-15 11:32:00,63.0,49.0,-100.00,North,-999,-999.0,-999.0,60,-99.99,,,-99.99,,2013-06-15 18:32:00,
2013-06-15 11:53:00,-999.0,-99.9,-100.00,NW,320,1.0,-999.0,-999,-99.99,,,-99.99,,2013-06-15 18:53:00,
2013-06-15 12:01:00,65.0,51.0,-100.00,North,-999,-999.0,-999.0,60,-99.99,,,-99.99,,2013-06-15 19:01:00,
2013-06-15 12:22:00,-999.0,-99.9,-100.00,WNW,300,1.0,-999.0,-999,-99.99,,,-99.99,,2013-06-15 19:22:00,
2013-06-15 12:32:00,67.0,42.0,-100.00,North,-999,-999.0,-999.0,39,-99.99,,,-99.99,,2013-06-15 19:32:00,
2013-06-15 12:52:00,69.0,46.0,-100.00,North,-999,-999.0,-999.0,44,-99.99,,,-99.99,,2013-06-15 19:52:00,
2013-06-15 13:01:00,68.0,39.0,-100.00,North,-999,-999.0,-999.0,35,-99.99,,,-99.99,,2013-06-15 20:01:00,
2013-06-15 13:22:00,69.0,34.0,-100.00,West,270,2.0,-999.0,26,-99.99,,,-99.99,,2013-06-15 20:22:00,
2013-06-15 13:33:00,69.0,34.0,-100.00,West,270,2.0,-999.0,26,-99.99,,,-99.99,,2013-06-15 20:33:00,
2013-06-15 13:43:00,70.0,38.0,-100.00,North,-999,-999.0,-999.0,30,-99.99,,,-99.99,,2013-06-15 20:43:00,
2013-06-15 13:53:00,70.0,-99.9,-100.00,WNW,290,2.0,-999.0,33,-99.99,,,-99.99,,2013-06-15 20:53:00,
2013-06-15 14:42:00,71.0,39.0,-100.00,WNW,300,3.0,-999.0,30,-99.99,,,-99.99,,2013-06-15 21:42:00,
2013-06-15 15:02:00,-999.0,-99.9,-100.00,WNW,290,2.0,-999.0,36,-99.99,,,-99.99,,2013-06-15 22:02:00,
2013-06-15 15:11:00,72.0,-99.9,-100.00,WNW,290,2.0,-999.0,36,-99.99,,,-99.99,,2013-06-15 22:11:00,
2013-06-15 15:33:00,-999.0,-99.9,-100.00,NW,320,2.0,-999.0,775,-99.99,,,-99.99,,2013-06-15 22:33:00,
2013-06-15 15:43:00,-999.0,-99.9,-100.00,NW,310,2.0,-999.0,30,-99.99,,,-99.99,,2013-06-15 22:43:00,
2013-06-15 15:54:00,73.0,-99.9,-100.00,NW,310,2.0,-999.0,30,-99.99,,,-99.99,,2013-06-15 22:54:00,
2013-06-15 16:12:00,-999.0,-99.9,-100.00,NW,310,2.0,-999.0,-999,-99.99,,,-99.99,,2013-06-15 23:12:00,
2013-06-15 16:22:00,-999.0,-99.9,-100.00,NW,310,2.0,-999.0,-999,-99.99,,,-99.99,,2013-06-15 23:22:00,
2013-06-15 16:33:00,72.0,-99.9,-100.00,NW,310,2.0,-999.0,42,-99.99,,,-99.99,,2013-06-15 23:33:00,
2013-06-15 17:11:00,72.0,53.0,-100.00,North,-999,-999.0,-999.0,51,-99.99,,,-99.99,,2013-06-16 00:11:00,
2013-06-15 17:22:00,71.0,-99.9,-100.00,NW,320,1.0,-999.0,51,-99.99,,,-99.99,,2013-06-16 00:22:00,
2013-06-15 17:34:00,69.0,-99.9,-100.00,WNW,290,3.0,-999.0,57,-99.99,,,-99.99,,2013-06-16 00:34:00,
2013-06-15 17:43:00,-999.0,-99.9,-100.00,WNW,290,3.0,-999.0,-999,-99.99,,,-99.99,,2013-06-16 00:43:00,
2013-06-15 17:53:00,-999.0,-99.9,-100.00,WNW,290,3.0,-999.0,-999,-99.99,,,-99.99,,2013-06-16 00:53:00,
2013-06-15 18:02:00,67.0,-99.9,-100.00,WNW,290,3.0,-999.0,53,-99.99,,,-99.99,,2013-06-16 01:02:00,
2013-06-15 18:11:00,67.0,50.0,-100.00,WNW,290,4.0,-999.0,53,-99.99,,,-99.99,,2013-06-16 01:11:00,
2013-06-15 18:22:00,64.0,-99.9,-100.00,WNW,290,4.0,-999.0,61,-99.99,,,-99.99,,2013-06-16 01:22:00,
2013-06-15 18:53:00,65.0,-99.9,-100.00,North,-999,-999.0,-999.0,-999,-99.99,,,-99.99,,2013-06-16 01:53:00,
2013-06-15 19:02:00,65.0,-99.9,-100.00,North,-999,-999.0,-999.0,57,-99.99,,,-99.99,,2013-06-16 02:02:00,
2013-06-15 19:12:00,-999.0,-99.9,-100.00,WNW,290,3.0,-999.0,58,-99.99,,,-99.99,,2013-06-16 02:12:00,
2013-06-15 19:22:00,-999.0,-99.9,-100.00,West,280,3.0,-999.0,58,-99.99,,,-99.99,,2013-06-16 02:22:00,
2013-06-15 19:33:00,-999.0,-99.9,-100.00,West,280,3.0,-999.0,-999,-99.99,,,-99.99,,2013-06-16 02:33:00,
2013-06-15 19:43:00,-999.0,-99.9,-100.00,West,280,3.0,-999.0,-999,-99.99,,,-99.99,,2013-06-16 02:43:00,
2013-06-15 19:53:00,-999.0,-99.9,-100.00,West,280,3.0,-999.0,-999,-99.99,,,-99.99,,2013-06-16 02:53:00,
2013-06-15 20:01:00,61.0,45.0,-100.00,North,-999,-999.0,-999.0,56,-99.99,,,-99.99,,2013-06-16 03:01:00,
2013-06-15 21:01:00,56.0,44.0,-100.00,North,-999,-999.0,-999.0,64,-99.99,,,-99.99,,2013-06-16 04:01:00,
2013-06-15 21:33:00,56.0,41.0,-100.00,North,-999,-999.0,-999.0,57,-99.99,,,-99.99,,2013-06-16 04:33:00,
2013-06-15 21:42:00,56.0,41.0,-100.00,North,-999,-999.0,-999.0,57,-99.99,,,-99.99,,2013-06-16 04:42:00,
2013-06-15 21:53:00,56.0,41.0,-100.00,North,-999,-999.0,-999.0,57,-99.99,,,-99.99,,2013-06-16 04:53:00,
2013-06-15 22:01:00,54.0,39.0,-100.00,North,-999,-999.0,-999.0,57,-99.99,,,-99.99,,2013-06-16 05:01:00,
2013-06-15 22:11:00,54.0,39.0,-100.00,North,-999,-999.0,-999.0,57,-99.99,,,-99.99,,2013-06-16 05:11:00,
2013-06-15 23:02:00,-999.0,-99.9,-100.00,West,280,0.0,-999.0,-999,-99.99,,,-99.99,,2013-06-16 06:02:00,
2013-06-15 23:12:00,-999.0,-99.9,-100.00,West,280,0.0,-999.0,-999,-99.99,,,-99.99,,2013-06-16 06:12:00,
2013-06-15 23:23:00,-999.0,-99.9,-100.00,West,280,0.0,-999.0,-999,-99.99,,,-99.99,,2013-06-16 06:23:00,